COSMOS 2251 DEB, 53093

Orbit data source: Space-Track

COSMOS 2251 DEB, 53093 is space debris in LEO originally from a launch on Wed, 16 Jun 1993 UTC launched from the Plesetsk Missile And Space Complex (PKMTR). The debris from Iridium 33, an American commercial communications satellite, has been tracked extensively since its accidental collision with the defunct Russian satellite Cosmos 2251 in 2009. This event, occurring at high speed in low Earth orbit (LEO), generated thousands of pieces of space debris, significantly increasing the risk of further collisions. The Iridium 33 debris cloud has impacted space traffic management and orbital debris mitigation strategies, making it a subject of ongoing study in space situational awareness.

Loading next visibility...
Identifier
53093, 1993-036BYP
Orbit
LEO
Country
Flag of CISCIS
Related business
Manufacturer
Unknown
Mission
Spacecraft
Bus & Motor
Unknown
Mass
Unknown
Launch date (UTC)
1993-06-16 (32 years ago)
Launch vehicle
Unknown
Launch site
Plesetsk Missile And Space Complex (PKMTR)
Object type
Payload
Rocket body
Debris
Shape & HBR
Unknown shape, 0.1 m
Radar Cross Section
Small (<0.1 m²)

Expand to show TLE details & history
Last TLE update: 11 hours ago

TLE from 11 hours ago
0 COSMOS 2251 DEB
1 53093U 93036BYP 25300.34895726  .00003186  00000-0  98604-3 0  9993
2 53093  74.0384  27.4119 0018895 122.0931 238.2062 14.41527886170570
Epoch: 2025-10-27T08:22Z
TLE epoch observation values (Epoch: 2025-10-27T08:22:29.907Z)
Latitude
-0.00005°
Longitude
-134.16481°
Altitude
763.192 km
Speed
7.469 km/s
True Right ascension
01h 49m 38s
True Declination
0° 00' 00"
Sunlit
Object was in full shadow at epoch
Visualization orbit readout
Latitude
Unknown
Longitude
Unknown
Altitude
Unknown
Speed
Unknown
Apparent Right ascension
Unknown
Apparent Declination
Unknown
Sunlit
N/A
Visualization observer readout
Local Sidereal Time
14:20:30
Azimuth
Unknown
Elevation
Unknown
Doppler factor
Unknown
Orbital elements
Apogee altitude
764.543 km
Perigee altitude
737.602 km
Semi-major axis
7,129.209 km
Eccentricity
0.00189
Inclination
74.0384°
RAAN
27.4119°
Arg. of periapsis
122.0931°
True anomaly
238.0224°
Mean anomaly
238.2062°
Eccentric anomaly
238.11428°
Mean motion
3.60563 °/min
Orbital period
99.84 mins
BSTAR
0.00098604
Loading maneuver chart data...
Computing Atmospheric mass density...

Documentation

Showing up to 5 results
|